Macomb, IL

1:19 AM CDT on September 23, 2017 (GMT -0500)
Macomb Municipal

Weather History for KMQB - May, 2014

Change the Weather History Date:

Monday, May 19, 2014

  Actual Average (KBRL) Record (KBRL)
Temperature  
Mean Temperature 62 °F -  
Max Temperature 75 °F 72 °F 93 °F (1998)
Min Temperature 50 °F 52 °F 38 °F (2002)
Degree Days  
Heating Degree Days 2    
Growing Degree Days 12 (Base 50)    
Moisture  
Dew Point 50 °F    
Average Humidity 60    
Maximum Humidity 76    
Minimum Humidity 40    
Precipitation  
Precipitation 0.00 in - - ()
Sea Level Pressure  
Sea Level Pressure 30.03 in    
Wind  
Wind Speed 13 mph (SSE)    
Max Wind Speed 30 mph    
Max Gust Speed 38 mph    
Visibility 10 miles    
Events      
Averages and records for this station are not official NWS values.
T = Trace of Precipitation, MM = Missing Value Source: NWS Daily Summary

Daily Weather History Graph

Daily Weather History Graph

Search for Another Location

Airport or City:

Trip Planner

Search our weather history database for the weather conditions in past years. The results will help you decide how hot, cold, wet, or windy it might be!

Date:

Astronomy

May. 19, 2014 Rise Set
Actual Time 5:42 AM CDT 8:16 PM CDT
Civil Twilight 5:11 AM CDT 8:47 PM CDT
Nautical Twilight 4:32 AM CDT 9:26 PM CDT
Astronomical Twilight 3:48 AM CDT 10:10 PM CDT
Moon 12:03 AM CDT (5/19) 10:40 AM CDT (5/19)
Length of Visible Light 15h 36m
Length of Day
14h 33m
Waning Gibbous, 71% of the Moon is Illuminated
May 19
Waning Gibbous
May 21
Last Quarter
May 28
New
Jun 5
First Quarter
Jun 12
Full

Hourly Weather History & Observations

Time (CDT) Temp. Dew Point Humidity Pressure Visibility Wind Dir Wind Speed Gust Speed Precip Events Conditions
12:15 AM 52.7 °F 42.3 °F 68% 30.17 in 10.0 mi SE 10.4 mph - N/A   Clear
12:35 AM 52.2 °F 42.3 °F 69% 30.17 in 10.0 mi SSE 9.2 mph - N/A   Clear
12:55 AM 51.8 °F 42.8 °F 71% 30.18 in 10.0 mi SSE 6.9 mph - N/A   Clear
1:15 AM 50.0 °F 42.3 °F 75% 30.17 in 10.0 mi SE 9.2 mph - N/A   Clear
1:35 AM 50.0 °F 42.3 °F 75% 30.18 in 10.0 mi SE 8.1 mph - N/A   Clear
1:55 AM 50.2 °F 42.6 °F 75% 30.19 in 10.0 mi SE 5.8 mph - N/A   Clear
2:15 AM 50.2 °F 42.8 °F 76% 30.21 in 10.0 mi Calm Calm - N/A   Clear
2:35 AM 50.7 °F 43.2 °F 75% 30.18 in 10.0 mi SE 6.9 mph - N/A   Scattered Clouds
2:55 AM 51.1 °F 43.0 °F 74% 30.17 in 10.0 mi SSE 11.5 mph - N/A   Scattered Clouds
3:15 AM 52.2 °F 43.0 °F 71% 30.18 in 10.0 mi SSE 9.2 mph - N/A   Mostly Cloudy
3:35 AM 52.9 °F 43.2 °F 70% 30.20 in 3.0 mi ESE 4.6 mph - N/A   Haze
3:55 AM 52.2 °F 43.7 °F 73% 30.20 in 10.0 mi ESE 4.6 mph - N/A   Overcast
4:35 AM 51.8 °F 43.3 °F 73% 30.19 in 10.0 mi SE 6.9 mph - N/A   Mostly Cloudy
4:55 AM 51.8 °F 43.9 °F 74% 30.19 in 10.0 mi SSE 8.1 mph - N/A   Overcast
5:15 AM 51.8 °F 43.7 °F 74% 30.18 in 10.0 mi SE 9.2 mph - N/A   Overcast
5:35 AM 52.2 °F 43.7 °F 73% 30.18 in 10.0 mi SE 9.2 mph - N/A   Mostly Cloudy
5:55 AM 52.2 °F 43.2 °F 71% 30.17 in 10.0 mi SE 10.4 mph - N/A   Scattered Clouds
6:15 AM 52.7 °F 43.3 °F 70% 30.17 in 10.0 mi SE 10.4 mph - N/A   Scattered Clouds
6:35 AM 52.7 °F 43.7 °F 71% 30.17 in 10.0 mi SE 11.5 mph - N/A   Scattered Clouds
6:55 AM 53.4 °F 44.1 °F 71% 30.17 in 10.0 mi SE 11.5 mph - N/A   Clear
7:15 AM 54.9 °F 43.9 °F 66% 30.17 in 10.0 mi SSE 11.5 mph 17.3 mph N/A   Clear
7:35 AM 55.8 °F 44.1 °F 65% 30.16 in 10.0 mi SSE 15.0 mph - N/A   Clear
9:35 AM 62.4 °F 43.2 °F 49% 30.14 in 10.0 mi SSE 20.7 mph 26.5 mph N/A   Mostly Cloudy
9:55 AM 64.0 °F 43.5 °F 47% 30.13 in 10.0 mi SSE 18.4 mph 25.3 mph N/A   Mostly Cloudy
10:15 AM 66.2 °F 43.5 °F 44% 30.12 in 10.0 mi SSE 20.7 mph 26.5 mph N/A   Mostly Cloudy
10:35 AM 67.6 °F 43.5 °F 42% 30.11 in 10.0 mi SSE 20.7 mph 28.8 mph N/A   Scattered Clouds
10:55 AM 67.5 °F 43.5 °F 42% 30.10 in 10.0 mi SSE 21.9 mph 28.8 mph N/A   Clear
11:15 AM 68.7 °F 44.1 °F 41% 30.10 in 10.0 mi SSE 20.7 mph 24.2 mph N/A   Clear
11:35 AM 69.8 °F 45.3 °F 41% 30.09 in 10.0 mi South 21.9 mph 25.3 mph N/A   Clear
11:55 AM 70.9 °F 46.0 °F 41% 30.08 in 10.0 mi SSE 24.2 mph 31.1 mph N/A   Scattered Clouds
12:15 PM 72.3 °F 46.8 °F 40% 30.06 in 10.0 mi South 21.9 mph 33.4 mph N/A   Scattered Clouds
12:35 PM 71.6 °F 47.5 °F 42% 30.05 in 10.0 mi SSE 24.2 mph 31.1 mph N/A   Mostly Cloudy
12:55 PM 72.3 °F 47.8 °F 42% 30.04 in 10.0 mi SSE 26.5 mph 32.2 mph N/A   Mostly Cloudy
1:15 PM 72.7 °F 48.2 °F 42% 30.03 in 10.0 mi South 21.9 mph 28.8 mph N/A   Mostly Cloudy
1:35 PM 72.7 °F 49.3 °F 44% 30.02 in 10.0 mi SSE 25.3 mph 31.1 mph N/A   Scattered Clouds
1:55 PM 73.8 °F 49.8 °F 43% 30.00 in 10.0 mi SSE 24.2 mph 32.2 mph N/A   Clear
2:15 PM 74.1 °F 50.5 °F 43% 29.99 in 10.0 mi SSE 25.3 mph 31.1 mph N/A   Clear
2:35 PM 75.0 °F 51.1 °F 43% 29.98 in 10.0 mi SSE 24.2 mph 32.2 mph N/A   Clear
2:55 PM 73.4 °F 51.8 °F 47% 29.96 in 10.0 mi SSE 24.2 mph 29.9 mph N/A   Clear
3:15 PM 74.7 °F 52.2 °F 45% 29.95 in 10.0 mi SSE 24.2 mph 31.1 mph N/A   Clear
3:35 PM 74.5 °F 52.9 °F 47% 29.94 in 10.0 mi SSE 24.2 mph 29.9 mph N/A   Clear
3:55 PM 74.3 °F 53.8 °F 49% 29.93 in 10.0 mi SSE 21.9 mph 33.4 mph N/A   Clear
4:15 PM 75.2 °F 54.0 °F 47% 29.90 in 10.0 mi South 26.5 mph 33.4 mph N/A   Clear
4:35 PM 74.5 °F 54.7 °F 50% 29.89 in 10.0 mi SSE 23.0 mph 34.5 mph N/A   Clear
4:55 PM 74.1 °F 54.9 °F 51% 29.89 in 10.0 mi South 21.9 mph 32.2 mph N/A   Clear
5:15 PM 73.6 °F 55.4 °F 53% 29.87 in 10.0 mi SSE 24.2 mph 32.2 mph N/A   Clear
5:55 PM 73.8 °F 56.3 °F 54% 29.87 in 10.0 mi South 19.6 mph 31.1 mph N/A   Clear
6:15 PM 74.5 °F 57.0 °F 54% 29.86 in 10.0 mi SSE 29.9 mph 38.0 mph N/A   Scattered Clouds
6:35 PM 73.9 °F 57.2 °F 56% 29.85 in 10.0 mi SSE 23.0 mph 33.4 mph N/A   Scattered Clouds
6:55 PM 73.4 °F 57.7 °F 58% 29.84 in 10.0 mi SSE 21.9 mph 32.2 mph N/A   Mostly Cloudy
7:15 PM 72.9 °F 58.3 °F 60% 29.84 in 10.0 mi SSE 20.7 mph 27.6 mph N/A   Overcast
7:35 PM 72.7 °F 58.3 °F 60% 29.85 in 10.0 mi South 17.3 mph 23.0 mph N/A   Overcast
7:55 PM 72.5 °F 58.3 °F 61% 29.86 in 10.0 mi South 18.4 mph 23.0 mph N/A   Overcast
8:15 PM 71.6 °F 58.5 °F 63% 29.86 in 10.0 mi South 18.4 mph 25.3 mph N/A   Scattered Clouds
8:35 PM 70.7 °F 58.6 °F 66% 29.87 in 10.0 mi South 13.8 mph 18.4 mph N/A   Mostly Cloudy
8:55 PM 69.8 °F 58.6 °F 68% 29.88 in 10.0 mi SSE 10.4 mph - N/A   Mostly Cloudy
9:15 PM 69.1 °F 59.0 °F 70% 29.89 in 10.0 mi SSE 10.4 mph - N/A   Mostly Cloudy
9:35 PM 68.7 °F 59.0 °F 71% 29.89 in 10.0 mi SSE 11.5 mph - N/A   Mostly Cloudy
9:55 PM 68.7 °F 59.2 °F 72% 29.91 in 10.0 mi SE 8.1 mph - N/A   Mostly Cloudy
10:15 PM 66.9 °F 58.8 °F 75% 29.93 in 10.0 mi SE 8.1 mph - N/A   Scattered Clouds
10:35 PM 67.6 °F 59.4 °F 75% 29.93 in 10.0 mi SE 9.2 mph - N/A   Mostly Cloudy
10:55 PM 68.0 °F 59.4 °F 74% 29.92 in 10.0 mi SE 10.4 mph - N/A   Overcast
11:15 PM 68.0 °F 59.5 °F 74% 29.92 in 10.0 mi SE 11.5 mph - N/A   Overcast
11:35 PM 68.0 °F 59.9 °F 75% 29.92 in 10.0 mi SE 11.5 mph - N/A   Overcast
11:55 PM 67.6 °F 59.9 °F 76% 29.92 in 10.0 mi SSE 13.8 mph 18.4 mph N/A   Overcast